Location: Silent Lake
(44.9206°N, 78.0708°W)
Time: 06:17:30
(UTC-04:00)

USA 234 - Pass Details

Date: 19 April 2018
Orbit: 1099 x 1109 km, 123.0° (Epoch: 23 May)

Event Time Altitude Azimuth Distance (km) Brightness Sun altitude
Exits shadow 21:40:33 - 79° (E) 3,014 5.2 -16.3°
Reaches altitude 10° 21:40:41 10° 79° (E) 2,968 5.1 -16.3°
Maximum altitude 21:46:33 37° 15° (NNE) 1,668 4.4 -17.1°
Drops below altitude 10° 21:52:25 10° 312° (NW) 2,977 6.8 -18.0°
Sets 21:55:06 0° 304° (NW) 3,937 7.9 -18.3°
